GFSFLT2_prec_cthk_129.txt.gz
RH
25 26 24 24 22 23 19 15 13 12 11 11 11 12 13 14 15 16 17 21 23 18 18 35 55 65 72
28 28 26 24 22 20 18 17 17 18 19 12 12 12 11 12 13 14 14 14 15 20 21 24 36 60 72
30 28 27 25 22 20 19 20 18 20 13 13 21 16 11 11 10 10 12 14 13 13 16 22 27 46 67
32 28 26 26 27 27 25 23 21 16 13 19 17 15 13 12 12 12 12 10 11 13 13 14 20 23 52
31 31 29 32 33 31 29 26 19 18 19 21 18 14 13 13 13 16 13 11 11 12 12 12 15 22 22
33 33 34 38 39 37 33 29 27 25 24 21 19 17 16 16 18 21 15 13 13 12 11 12 13 15 25
40 37 37 38 38 37 37 39 37 32 30 26 25 22 20 19 21 22 20 22 20 12 11 11 12 13 16
40 40 40 41 43 44 45 42 40 37 38 34 32 27 27 24 21 22 29 29 26 18 13 11 11 12 14
43 43 45 50 52 52 49 48 44 43 46 45 41 40 36 31 30 33 36 34 33 29 23 14 12 12 13
43 46 48 51 55 56 56 55 56 57 61 63 61 59 51 47 44 42 40 41 40 34 25 17 14 14 16
47 50 52 56 57 60 62 63 61 58 60 65 59 59 61 52 46 46 45 43 39 33 27 22 20 24 20
53 55 57 59 60 57 57 55 54 50 46 54 52 51 51 47 44 42 45 44 43 38 31 28 24 23 25
59 61 61 57 56 50 45 42 41 45 49 56 61 57 60 60 57 54 53 45 45 41 37 33 28 26 23
63 62 57 55 49 42 40 43 45 46 55 60 63 64 62 66 68 60 60 59 51 48 44 36 32 31 27
65 58 52 50 43 44 46 49 52 54 56 64 73 77 78 80 80 82 70 64 61 55 51 41 32 29 27
64 53 52 47 45 46 49 52 56 60 65 71 76 79 80 79 86 76 73 71 68 62 56 48 35 30 29
57 55 51 50 48 45 48 53 56 60 64 71 76 80 77 75 80 86 81 72 66 58 56 51 42 31 31

GFSFLT2_prec_cthk_132.txt.gz
RH
31 30 29 30 30 30 28 24 20 18 16 16 12 10 12 12 10 10 10 11 11 11 12 18 20 24 31
34 32 32 33 31 30 28 25 22 20 22 17 14 13 17 12 10 10 10 10 9 9 10 12 13 14 21
37 35 35 34 31 30 29 26 23 20 20 18 16 19 19 13 12 11 11 11 10 9 9 11 11 11 11
41 38 38 38 34 32 28 28 26 25 23 21 19 19 17 14 13 12 11 14 13 9 9 11 9 9 11
43 42 39 36 35 32 31 30 28 27 26 27 25 20 17 16 15 14 17 20 19 13 13 12 10 9 9
50 47 43 40 36 34 33 33 32 31 31 29 28 25 25 23 20 18 22 21 15 20 20 20 14 10 10
54 49 45 40 39 37 37 38 36 34 34 31 32 31 30 29 28 27 23 19 21 23 23 22 21 18 14
54 50 44 41 43 44 45 43 40 39 41 38 38 37 38 38 39 37 33 34 32 29 26 25 24 23 18
54 51 46 45 47 49 46 45 42 42 44 41 37 34 33 31 33 38 44 47 46 40 40 36 32 29 20
53 46 46 46 47 50 48 45 45 42 41 37 33 35 32 29 29 32 35 37 41 44 47 44 40 34 30
47 48 48 49 52 53 51 47 42 37 35 38 34 35 40 36 27 32 35 37 41 40 40 41 40 42 37
50 51 53 56 57 55 47 42 39 36 35 40 39 42 45 43 41 39 40 43 48 45 41 39 38 38 36
51 57 60 60 58 46 42 40 36 34 37 42 46 48 53 57 55 55 57 57 56 51 49 48 42 38 33
60 66 65 62 50 45 42 37 35 35 41 48 52 54 55 59 64 62 69 65 60 63 60 50 47 46 39
69 68 65 59 47 46 41 40 40 40 44 54 57 60 61 63 64 64 62 65 66 62 65 59 53 49 44
72 68 65 53 50 44 45 46 48 50 54 58 61 63 63 60 70 64 64 63 63 66 71 66 53 54 49
71 69 62 53 50 46 49 51 55 59 62 66 68 71 71 66 64 72 71 70 69 69 71 66 57 52 50

GFSFLT2_prec_cthk_135.txt.gz
RH
27 32 36 34 34 34 34 34 33 30 27 24 22 20 20 25 24 15 12 12 11 12 12 12 13 15 14
31 33 36 36 36 36 36 37 36 34 30 26 23 20 21 22 16 13 12 11 10 9 9 8 9 15 12
35 39 43 40 39 39 39 40 38 34 31 27 24 22 22 19 16 13 12 10 10 15 18 12 9 10 9
39 47 48 43 44 43 43 42 38 35 33 28 26 25 24 21 19 17 14 12 11 13 16 11 13 17 13
50 53 49 49 51 49 48 44 39 38 34 29 28 26 25 24 23 22 20 18 23 23 16 12 17 19 18
59 58 55 55 53 53 50 45 40 38 34 31 30 28 28 29 29 29 27 26 24 21 18 23 22 20 19
65 64 60 59 57 54 51 49 41 38 37 33 32 30 29 27 26 25 25 26 28 32 35 31 29 25 22
70 65 63 63 63 59 54 48 43 41 41 35 31 27 23 21 20 19 18 18 20 24 28 33 35 33 28
73 68 68 66 63 60 51 46 45 44 41 37 30 25 21 18 17 18 19 19 19 18 18 22 29 34 36
72 68 68 63 60 54 51 51 50 45 40 35 31 29 25 21 22 24 25 25 25 24 24 26 24 27 28
71 66 64 61 55 53 54 53 51 43 37 35 31 30 32 31 28 31 31 30 31 32 34 34 31 30 30
68 61 61 58 55 58 58 55 46 38 33 32 31 34 36 37 40 37 37 37 39 38 40 43 43 40 36
65 59 56 56 62 62 58 51 41 36 33 34 39 42 47 49 47 46 41 43 47 47 47 46 48 49 44
61 54 55 63 66 63 59 45 40 33 35 39 44 49 54 58 60 55 53 56 52 53 52 48 49 54 50
54 53 61 68 68 64 55 47 41 38 40 46 51 57 61 66 68 67 64 62 59 59 60 55 51 53 58
50 58 69 70 67 64 52 47 44 44 47 56 60 62 65 71 77 75 76 72 67 67 68 66 55 57 58
54 68 72 71 68 59 52 48 48 52 58 64 66 69 71 74 83 89 86 87 84 78 78 77 70 63 60

GFSFLT2_prec_cthk_138.txt.gz
RH
28 29 29 30 31 30 31 34 34 34 33 33 31 30 28 34 33 28 22 23 20 16 16 14 13 13 16
32 33 33 32 33 33 35 39 41 42 39 37 34 32 34 37 35 27 22 19 18 16 14 13 11 10 10
37 38 37 34 35 37 43 45 47 47 42 39 37 36 35 33 31 28 24 22 20 18 16 16 16 10 9
41 43 41 40 42 48 50 52 50 48 44 43 42 40 37 33 32 33 29 24 20 19 25 23 18 14 18
48 46 44 50 54 58 58 57 54 50 49 48 45 40 38 37 36 34 30 24 22 26 28 23 17 18 21
52 50 55 58 60 60 62 62 59 55 53 47 46 42 40 38 35 30 26 23 21 20 18 18 25 26 27
58 58 64 64 65 66 66 67 64 60 56 48 48 44 39 32 26 21 18 16 14 14 14 18 17 15 16
63 73 79 75 71 71 74 70 63 60 59 52 48 39 31 24 19 16 15 15 14 14 13 13 13 13 12
79 85 85 80 78 75 75 70 62 58 57 53 43 35 27 21 16 14 14 14 14 15 16 16 17 17 20
89 86 82 82 79 78 73 67 60 54 54 49 42 35 27 20 17 16 16 17 19 20 21 22 22 22 20
93 89 85 84 76 74 70 65 59 54 55 50 40 33 31 26 21 22 24 26 28 28 28 29 29 30 28
94 90 87 81 75 70 64 63 60 60 58 48 38 33 31 31 32 30 34 36 36 36 36 36 36 38 38
94 89 83 78 70 63 64 63 65 64 58 45 38 34 35 36 35 39 42 41 44 44 45 44 45 44 40
92 85 82 73 61 61 62 69 69 64 56 44 39 38 38 39 43 46 49 50 49 53 55 55 55 53 50
90 85 78 63 56 62 69 73 69 64 51 46 42 42 44 49 50 51 51 52 58 64 67 64 64 63 61
90 81 67 54 58 68 75 75 68 62 51 47 45 49 51 52 57 57 58 57 63 75 82 78 71 76 74
85 71 55 54 65 75 77 73 70 59 53 50 52 54 57 59 65 78 70 71 71 77 88 89 82 78 85

GFSFLT2_prec_cthk_144.txt.gz
RH
28 27 26 25 26 26 28 30 31 30 31 30 29 29 29 30 30 37 37 35 31 28 24 26 32 32 30
37 33 31 30 30 31 34 36 37 37 37 37 36 36 35 34 36 37 36 37 33 31 28 27 29 34 35
41 42 39 36 36 40 45 47 48 45 43 44 45 44 42 42 46 43 40 40 38 34 32 31 30 34 37
46 46 46 47 44 45 50 55 56 53 50 50 50 50 50 48 47 48 46 44 42 40 40 37 34 39 35
52 55 53 56 50 51 56 62 66 64 62 60 60 62 58 53 51 51 49 48 47 46 42 40 42 40 36
65 58 61 62 57 58 61 69 69 74 70 74 67 64 64 63 59 57 54 50 49 47 43 40 38 35 38
68 64 65 69 63 70 69 67 74 75 75 73 73 64 63 62 61 60 58 54 52 46 40 35 31 30 27
63 69 66 69 69 66 64 67 74 82 82 70 70 67 67 66 63 60 57 54 50 44 38 33 29 26 24
68 71 59 66 68 68 72 86 89 89 86 82 79 69 68 68 67 63 61 54 46 39 34 30 26 22 16
71 69 64 70 73 81 89 90 91 86 88 84 76 76 74 70 70 65 61 52 42 35 28 21 17 15 14
67 69 72 71 72 87 95 92 92 91 91 86 82 80 74 73 71 71 63 50 38 28 22 19 18 18 20
62 64 68 69 76 91 95 94 94 93 92 87 79 75 74 71 66 71 66 47 34 26 22 21 20 23 26
58 65 70 73 81 94 95 95 95 92 88 81 76 74 73 68 65 61 59 48 36 30 26 25 27 30 30
63 65 64 78 86 91 92 97 95 91 85 78 73 74 70 66 62 61 60 51 41 36 31 30 33 36 38
67 67 73 84 88 90 94 97 95 88 78 71 72 73 68 66 65 62 60 50 44 39 36 35 38 41 44
69 74 79 84 94 95 97 97 92 80 70 68 75 75 69 66 66 63 61 54 49 45 41 40 38 42 44
75 73 78 95 98 97 97 95 82 72 64 71 75 75 72 67 69 70 64 59 54 51 49 46 43 42 46

GFSFLT2_prec_cthk_147.txt.gz
RH
38 37 36 33 31 28 25 24 23 25 29 31 32 32 33 33 34 33 39 37 36 35 35 33 32 32 31
39 42 42 39 36 33 31 29 27 30 34 35 39 40 39 39 40 40 45 43 42 38 37 36 36 34 34
40 44 45 45 43 40 37 36 36 36 39 43 46 47 45 43 43 45 50 47 42 41 38 35 40 40 39
41 42 44 50 48 48 45 42 42 41 44 49 51 56 56 55 55 55 53 47 47 45 44 46 48 42 44
40 40 45 50 56 55 50 45 47 47 49 54 57 63 61 62 60 63 60 58 53 48 49 55 52 51 49
41 40 47 53 61 62 53 50 52 55 54 61 62 63 62 59 58 62 60 57 59 58 59 57 54 53 54
42 44 46 58 63 61 61 54 54 56 55 56 63 69 64 60 56 58 60 60 61 60 60 56 52 55 52
46 49 55 62 63 65 64 64 55 59 58 61 79 80 74 73 70 66 63 66 66 61 59 56 57 51 42
46 51 54 59 61 62 67 64 55 62 65 79 87 79 75 74 71 68 68 67 66 62 58 54 51 47 40
51 56 60 61 65 62 62 60 60 63 74 86 88 85 82 81 73 69 71 70 70 66 59 54 48 43 38
53 57 61 63 66 66 63 67 70 68 81 87 91 91 88 84 79 76 74 75 73 67 61 53 45 38 34
54 55 58 62 64 64 62 63 66 71 83 90 89 92 87 83 80 75 74 76 73 68 62 52 42 33 25
55 54 58 65 64 63 68 70 69 77 84 91 90 91 86 83 76 71 72 77 76 70 62 51 39 30 24
61 62 62 66 69 73 71 70 76 84 87 90 92 92 85 80 73 68 75 77 76 70 62 53 41 33 28
80 72 67 68 74 75 77 80 82 89 94 95 94 88 83 76 68 70 73 71 68 66 63 55 47 38 34
81 74 72 76 80 78 81 83 89 97 97 98 91 84 75 67 70 69 67 66 68 65 62 55 48 44 40
88 76 78 87 86 82 79 90 97 97 97 94 84 73 69 69 71 70 69 70 68 66 64 60 54 49 48

GFSFLT2_prec_cthk_150.txt.gz
RH
44 44 42 41 39 37 36 35 31 30 27 26 26 26 28 29 29 29 29 31 40 39 38 38 37 34 33
44 43 44 44 43 42 42 40 37 34 31 31 29 30 30 32 34 34 34 37 43 43 44 43 42 41 36
42 42 41 42 43 44 46 46 45 41 38 36 34 33 33 36 38 39 40 47 49 46 40 41 46 45 44
45 43 42 41 42 44 46 48 50 47 43 42 37 37 37 40 42 42 46 49 49 50 50 48 44 50 49
44 43 43 42 41 45 46 50 52 50 49 46 42 41 44 47 46 46 49 50 49 50 50 53 55 54 52
46 47 45 47 50 51 48 47 51 53 53 50 47 47 49 49 49 48 51 48 49 50 49 57 60 61 57
56 53 51 55 59 56 50 50 56 57 53 55 56 53 53 54 53 51 55 60 61 59 52 59 63 59 62
65 64 62 58 58 54 55 58 56 57 59 57 65 61 57 60 62 62 65 64 64 65 65 65 65 60 64
53 54 57 59 57 59 57 60 58 59 62 61 62 59 57 64 68 70 72 68 67 67 68 70 68 65 65
49 51 53 51 57 55 60 60 61 63 64 63 66 70 67 66 71 73 74 71 70 69 72 72 70 63 61
53 56 59 55 51 57 64 64 65 64 68 64 66 71 70 72 77 86 84 76 74 74 74 71 68 64 60
57 65 67 53 56 65 68 66 63 64 70 66 65 72 71 76 81 90 89 80 74 76 76 75 73 69 64
55 65 79 86 82 69 69 69 67 66 70 70 72 72 73 79 84 90 89 84 75 72 75 76 72 69 67
64 81 70 89 98 90 72 69 69 68 72 75 75 74 79 82 86 89 90 83 70 75 74 73 71 67 64
77 86 82 98 98 98 98 76 73 76 76 78 81 83 82 86 90 92 87 75 75 80 80 76 70 64 59
91 82 89 95 98 98 94 76 82 86 85 84 86 85 90 92 91 88 76 72 78 80 79 73 65 62 57
98 93 84 98 98 98 88 83 89 89 88 86 90 97 97 92 87 76 67 76 77 77 72 67 64 64 62

GFSFLT2_prec_cthk_153.txt.gz
RH
41 44 43 42 44 45 45 45 43 42 41 39 34 30 27 26 26 26 28 27 28 33 34 32 32 32 32
48 47 47 47 46 45 44 44 43 43 43 44 42 35 31 29 29 28 29 30 30 33 37 33 36 34 35
50 52 52 52 50 48 46 45 45 45 46 44 46 42 38 34 31 31 33 34 33 37 39 37 37 40 41
53 53 54 54 54 51 48 49 48 48 48 47 47 48 44 38 34 33 36 38 39 36 37 38 37 39 39
56 56 57 57 54 56 53 52 51 50 48 46 48 54 47 42 38 37 39 41 42 40 41 41 39 38 39
59 59 59 59 59 61 62 63 60 59 58 57 61 55 49 44 44 42 42 43 42 41 43 42 40 40 40
55 54 55 57 62 64 66 67 68 71 76 68 62 57 55 52 49 50 46 46 45 46 47 50 54 55 54
29 33 44 49 54 54 58 59 58 57 64 63 63 63 66 59 55 54 51 48 46 49 53 59 61 61 62
26 27 30 45 55 57 57 60 58 56 60 63 57 61 63 60 58 57 55 51 50 52 55 62 66 64 65
29 34 33 33 51 60 63 66 63 73 59 66 63 68 64 62 61 61 59 55 52 51 55 63 70 70 70
36 35 38 39 39 56 72 73 72 80 63 65 69 67 66 66 65 63 60 60 59 58 62 68 73 71 72
48 48 48 46 45 51 73 90 89 80 72 78 74 68 68 68 66 65 65 66 66 64 66 72 72 74 75
62 60 63 64 66 62 79 98 95 98 96 87 73 72 70 67 68 67 69 67 70 75 69 71 73 75 76
74 70 78 74 80 78 83 98 98 98 98 93 79 74 77 76 75 73 73 72 81 80 72 71 72 77 75
85 80 83 86 89 91 98 93 98 97 98 98 92 80 82 81 78 78 80 83 85 84 78 71 75 76 75
85 85 89 97 95 96 98 98 97 98 98 94 88 83 88 85 85 85 86 93 91 82 77 77 78 79 77
86 94 97 98 98 96 95 98 97 98 96 89 88 90 90 89 91 91 96 96 91 79 75 80 78 78 74

GFSFLT2_prec_cthk_156.txt.gz
RH
36 38 41 44 46 48 49 49 48 48 48 49 49 48 46 43 40 34 29 26 25 25 23 26 26 30 31
40 41 43 47 50 51 52 52 51 52 52 51 51 51 51 49 46 40 35 32 28 27 30 27 30 28 34
43 45 45 48 52 55 56 56 52 52 54 53 52 51 50 50 49 46 42 40 34 31 32 28 29 29 30
50 51 54 56 59 59 56 58 58 61 60 59 59 54 53 52 53 51 48 44 37 40 32 32 32 32 31
43 44 45 49 50 51 52 54 55 60 62 63 66 65 60 57 56 56 56 51 49 47 37 37 37 35 33
29 29 29 34 37 39 43 46 45 49 53 53 64 65 66 65 69 69 63 62 58 52 44 43 42 38 35
29 28 28 27 32 38 41 43 43 43 53 49 56 56 55 62 70 71 73 72 64 57 55 51 48 46 43
25 25 27 26 30 34 36 42 44 50 55 53 51 54 56 54 59 63 69 70 67 62 60 59 55 49 47
30 30 30 31 33 40 39 44 41 41 48 64 61 65 68 63 60 58 63 65 65 62 60 59 54 50 48
31 33 35 35 37 42 47 50 55 53 43 67 60 63 77 72 71 66 67 66 66 63 63 60 57 53 50
36 35 37 42 47 51 56 66 73 68 56 65 84 82 83 85 77 72 69 68 66 64 62 58 56 55 53
46 45 55 56 57 62 66 70 75 76 72 77 88 98 98 97 81 81 79 74 69 69 66 62 60 56 56
58 60 74 76 73 75 73 82 79 77 86 82 98 98 98 88 94 90 84 72 73 72 69 66 66 60 56
72 83 83 84 85 81 79 86 88 93 78 96 99 99 98 97 94 81 75 73 76 78 76 73 68 61 60
87 93 93 94 87 87 91 98 96 96 88 97 98 96 98 97 88 80 75 80 82 84 85 80 71 71 70
95 98 98 97 88 90 97 98 96 98 98 98 96 98 98 93 92 82 84 88 89 88 85 83 81 77 73
97 98 98 96 91 97 97 98 96 97 96 98 98 98 96 91 91 88 89 94 95 93 89 87 84 78 77

GFSFLT2_prec_cthk_159.txt.gz
RH
35 36 37 39 41 44 47 49 50 53 54 55 54 51 50 51 51 51 51 49 45 39 34 33 30 34 32
40 41 41 43 43 45 48 51 52 54 56 59 61 62 61 57 54 54 54 54 53 48 42 36 31 30 36
36 39 38 38 38 39 41 43 47 51 56 60 63 64 65 66 63 59 57 56 57 55 50 42 35 34 38
29 26 26 25 27 28 27 28 27 30 36 46 52 57 61 64 65 65 63 61 60 59 55 50 45 40 45
24 25 25 26 29 31 34 34 34 37 32 27 28 38 46 56 64 68 68 65 65 64 61 57 51 48 48
24 25 22 25 27 32 31 28 26 32 35 35 37 32 36 45 48 60 63 66 69 70 68 63 59 57 57
25 25 25 25 30 30 33 36 33 30 39 29 37 34 31 37 48 54 59 57 62 69 71 71 71 72 69
25 27 29 29 31 36 38 38 38 34 38 40 37 36 37 36 47 55 65 64 62 65 62 65 72 76 77
26 28 30 32 35 46 42 49 47 44 38 49 41 42 43 41 40 62 59 75 73 64 65 66 69 71 71
30 30 34 36 37 49 54 58 58 59 43 68 60 56 63 46 46 61 70 83 85 71 67 69 70 68 64
40 40 40 42 47 54 61 72 77 71 59 86 78 69 71 74 58 73 77 85 96 83 76 72 72 71 66
49 45 45 50 58 65 76 84 84 86 77 81 86 81 79 86 80 87 98 98 98 98 92 86 74 72 71
55 51 55 62 67 81 88 90 83 80 83 87 91 91 95 94 78 99 99 98 98 94 97 95 84 76 74
57 58 67 79 85 95 91 94 86 77 93 94 99 97 92 98 94 97 98 98 98 98 97 95 89 77 75
69 82 86 90 93 97 98 94 88 91 94 93 95 96 97 98 95 98 96 98 98 95 87 82 79 77 76
91 96 97 97 97 98 98 93 96 95 97 97 98 96 95 98 98 98 98 98 97 88 83 84 84 82 82
98 98 98 97 98 96 92 96 98 98 97 97 96 93 96 97 98 98 98 97 94 90 89 89 90 94 88

GFSFLT2_prec_cthk_162.txt.gz
RH
32 32 33 35 35 35 35 36 40 45 48 49 49 50 53 55 56 57 56 54 55 55 55 58 58 54 49
34 34 32 30 29 28 28 28 28 29 33 40 49 54 57 60 63 64 65 65 62 61 61 60 64 63 58
24 24 24 23 22 19 19 19 19 19 20 21 22 27 38 47 53 57 60 63 66 62 61 62 63 66 65
17 17 19 19 22 22 21 19 18 20 18 17 19 19 21 26 35 44 49 55 61 66 66 66 67 66 65
17 18 19 22 24 24 25 24 23 23 23 21 21 18 16 19 21 27 40 47 51 57 64 67 72 73 70
19 22 22 26 25 27 28 33 34 34 30 28 33 30 27 21 17 20 29 42 48 50 56 60 66 75 77
25 26 26 26 32 35 38 39 37 34 39 38 37 36 30 28 25 22 23 35 43 48 56 59 56 64 75
29 29 31 30 38 39 41 42 40 30 35 44 33 39 40 36 32 32 27 29 45 52 52 63 59 61 66
39 39 38 40 43 50 44 48 44 35 35 58 42 49 52 48 40 38 39 37 42 61 60 63 66 62 67
37 38 39 42 46 50 53 54 56 51 51 71 68 67 61 53 52 53 55 54 57 63 71 73 73 73 69
43 44 43 46 47 50 58 66 70 66 66 92 80 78 81 73 60 61 70 72 73 68 82 82 87 84 77
45 46 48 50 53 56 62 73 79 85 85 99 95 91 84 75 70 78 78 83 87 81 90 82 90 98 87
45 44 47 49 54 64 75 84 86 94 97 98 98 90 88 85 89 83 98 90 92 92 93 99 99 98 97
56 62 69 75 80 87 90 93 91 92 98 95 91 94 98 93 92 91 98 96 95 98 97 98 98 97 97
82 84 86 91 93 94 95 93 95 87 87 94 96 96 96 98 98 98 98 98 99 98 98 98 98 96 95
92 96 97 97 94 96 99 97 90 88 94 97 97 97 97 97 98 98 98 98 98 98 97 95 96 94 93
98 98 98 97 98 95 97 89 95 96 98 98 98 98 94 90 98 97 97 97 97 96 96 95 89 85 83

GFSFLT2_prec_cthk_165.txt.gz
RH
29 28 27 26 25 25 25 25 24 23 22 23 26 32 38 42 45 49 54 56 58 59 58 58 60 61 61
22 20 20 19 17 16 15 14 14 14 15 15 16 16 17 21 28 36 42 50 56 61 64 65 64 64 66
15 16 16 15 14 14 14 13 13 14 16 17 17 17 18 20 22 24 29 36 43 48 53 58 66 67 68
14 14 15 15 17 19 19 20 16 15 15 18 19 18 17 18 19 21 23 26 32 39 44 46 49 56 58
16 16 20 24 27 30 28 25 25 25 26 25 23 22 21 20 21 22 21 22 24 29 38 42 45 49 53
28 29 28 30 32 35 36 37 34 30 36 34 30 28 25 24 22 23 25 24 25 25 31 40 43 46 49
33 31 33 36 40 40 41 44 39 36 42 37 30 36 31 32 27 26 27 28 29 31 27 35 41 46 50
35 35 39 41 45 51 50 50 45 38 45 44 31 35 39 37 35 34 37 38 35 37 36 32 37 49 56
41 41 44 47 53 56 56 61 48 36 41 53 42 50 53 48 49 48 48 52 49 49 49 44 40 44 52
39 41 44 45 48 54 56 57 56 45 53 62 59 70 62 60 67 65 65 62 63 61 58 56 53 58 59
40 39 40 41 44 50 55 59 57 52 63 81 74 80 91 74 67 74 72 64 70 71 74 69 66 69 71
40 41 43 44 48 53 60 69 80 83 86 97 94 98 95 86 79 76 78 82 87 81 79 84 87 72 77
46 49 57 69 76 80 84 90 92 95 94 98 99 98 97 86 77 82 87 87 91 93 92 96 90 75 91
66 69 73 77 84 92 94 98 97 93 94 97 98 95 86 92 93 89 95 97 96 97 96 95 94 93 98
94 95 96 97 97 98 98 97 98 97 92 93 98 98 97 92 92 94 96 98 98 94 94 96 98 96 98
92 94 95 97 97 98 99 97 97 94 93 96 96 96 97 93 97 97 97 98 98 95 98 98 98 97 98
86 88 91 92 95 93 91 87 86 86 93 96 95 98 95 95 92 94 98 98 98 98 95 97 98 97 97

GFSFLT2_prec_cthk_171.txt.gz
RH
16 15 14 12 12 11 11 11 11 11 11 11 12 12 12 13 14 19 18 22 23 25 31 36 38 42 44
14 14 15 15 14 16 16 15 16 15 15 15 16 17 17 18 21 25 26 26 25 24 24 29 34 39 47
16 20 22 24 25 24 24 25 25 22 20 19 19 21 25 27 26 26 27 28 29 28 28 28 30 33 33
23 24 24 24 24 25 25 26 28 26 25 22 25 24 23 25 28 29 28 25 24 28 30 30 30 30 31
23 22 22 24 28 30 30 29 29 29 34 32 38 33 27 31 30 30 30 31 31 37 38 39 39 39 34
28 30 28 31 32 35 36 38 39 43 44 33 39 35 35 36 32 30 33 33 34 38 42 41 41 39 39
26 27 30 33 37 39 43 45 42 37 40 32 38 35 38 35 38 38 37 40 41 41 41 42 43 43 41
31 35 38 41 48 45 42 39 39 41 41 36 41 40 42 46 45 46 48 50 53 54 55 55 54 53 48
37 43 47 52 52 48 46 48 47 51 61 63 66 64 64 63 69 73 74 74 71 67 66 67 66 63 58
45 51 55 59 67 75 77 68 63 60 75 73 76 82 67 72 76 77 75 81 82 84 84 84 79 77 69
52 58 58 62 66 73 79 83 84 83 85 89 84 87 89 73 75 82 82 77 75 74 73 73 77 81 75
64 64 60 64 67 70 74 79 85 86 86 89 85 88 87 80 71 80 86 81 80 80 80 82 81 79 75
74 61 60 63 67 69 72 73 77 81 84 82 81 83 83 82 79 79 79 87 93 94 93 92 90 93 89
72 58 59 63 66 67 67 69 69 71 74 75 74 80 84 85 87 87 86 85 88 93 95 94 94 91 91
73 61 60 63 65 66 65 66 66 64 66 67 74 78 82 81 83 81 81 81 89 92 95 92 95 94 95
76 64 60 61 63 66 65 65 66 66 67 69 70 71 77 82 80 77 78 84 89 92 95 95 97 97 94
78 71 65 66 68 68 67 69 72 75 78 76 76 74 74 77 79 81 86 86 87 89 92 95 93 93 96